TIANLIAN 2-02

Last updated on Tue Oct 21 2025 00:02:55 GMT+0000 (Coordinated Universal Time)

1 50005U 21124A 25293.52845417 -.00000010 00000+0 00000+0 0 9997 2 50005 0.1787 92.8390 0004640 149.5431 148.0904 1.00271994 14214
UTC large
Height (km)
Speed (km/s)
/
Latitude / Longitude
Inclination (degrees)
Orbital Period (minutes)
Azimuth
Elevation
Range (km)
Doppler Factor

Next 0 passes for location: London (51.5072 / 0.1276)

Sorry there are no passes over London.